This demonstration page uses our WeatherBlox Daily Observations layout. Learn more.

Left ArrowRight Arrow

Hourly Observations for August 15, 2022

Temp ( °F °C ) Dew Point ( °F °C ) Humidity (%) Winds ( mph kmh ) Pressure ( in mb ) Visibility ( mi km ) Precip ( " mm )
12:53 am 00:53 Cloudy with Smoke 78 25.6 33 0.6 19 19 N 3 6 29.84 1011 10 16 0.00 0.00
1:53 am 01:53 Cloudy with Smoke 74 23.3 38 3.3 27 27 N 6 9 29.83 1010 6 10 0.00 0.00
2:53 am 02:53 Cloudy with Smoke 74 23.3 36 2.2 25 25 N 5 7 29.83 1010 10 16 0.00 0.00
3:53 am 03:53 Clear with Smoke 72 22.2 39 3.9 30 30 N 5 7 29.83 1010 7 11 0.00 0.00
4:53 am 04:53 Clear with Smoke 70 21.1 40 4.4 33 33 Calm 29.82 1010 10 16 0.00 0.00
5:53 am 05:53 Clear with Smoke 66 18.9 41 5 40 40 Calm 29.82 1010 7 11 0.00 0.00
6:53 am 06:53 Sunny with Smoke 66 18.9 41 5 40 40 ENE 3 6 29.83 1010 7 11 0.00 0.00
7:53 am 07:53 Sunny with Smoke 73 22.8 39 3.9 29 29 Calm 29.83 1010 10 16 0.00 0.00
8:53 am 08:53 Sunny with Smoke 84 28.9 45 7.2 26 26 Calm 29.83 1010 9 14 0.00 0.00
9:53 am 09:53 Sunny with Smoke 92 33.3 43 6.1 18 18 N 9 15 29.81 1010 10 16 0.00 0.00
10:53 am 10:53 Sunny with Smoke 97 36.1 42 5.6 15 15 NE 10 17 29.80 1009 10 16 0.00 0.00
11:53 am 11:53 Sunny 100 37.8 41 5 13 13 NNE 12 19 29.79 1009 10 16 0.00 0.00
12:53 pm 12:53 Sunny 102 38.9 38 3.3 11 11 VRB 3 6 29.77 1008 10 16 0.00 0.00
1:53 pm 13:53 Sunny 104 40 38 3.3 10 10 ESE 6 9 29.75 1007 10 16 0.00 0.00
2:53 pm 14:53 Sunny 106 41.1 33 0.6 8 8 Calm 29.73 1007 10 16 0.00 0.00
3:53 pm 15:53 Sunny 106 41.1 33 0.6 8 8 SW 9 15 29.72 1006 10 16 0.00 0.00
4:53 pm 16:53 Sunny 106 41.1 31 -0.6 7 7 S 6 9 29.71 1006 10 16 0.00 0.00
5:53 pm 17:53 Sunny 107 41.7 29 -1.7 7 7 S 6 9 29.70 1006 10 16 0.00 0.00
6:53 pm 18:53 Sunny 105 40.6 31 -0.6 8 8 SSE 12 19 29.69 1005 10 16 0.00 0.00
7:53 pm 19:53 Sunny 98 36.7 37 2.8 12 12 S 8 13 29.70 1006 10 16 0.00 0.00
8:53 pm 20:53 Clear 95 35 43 6.1 17 17 SSW 6 9 29.71 1006 10 16 0.00 0.00
9:53 pm 21:53 Mostly Cloudy 88 31.1 43 6.1 21 21 SSE 5 7 29.73 1007 10 16 0.00 0.00
10:45 pm 22:45 Cloudy 86 30 45 7.2 24 24 Calm 29.74 1007 10 16 0.00 0.00
10:53 pm 22:53 Cloudy 85 29.4 45 7.2 25 25 Calm 29.75 1007 9 14 0.00 0.00
11:53 pm 23:53 Cloudy 83 28.3 48 8.9 30 30 Calm 29.76 1008 9 14 0.00 0.00

Powered by AerisWeather